[Date Prev][Date Next][Thread Prev][Thread Next] - [Date Index][Thread Index][Author Index]

2 Line ISS Keps 5-12



ISS
1 25544U 98067A   05132.33530132  .00057715  00000-0  44135-3 0  4575
2 25544 051.6449 084.5121 0005425 108.2275 350.6845 15.71567294370045
----
Via the sarex mailing list at AMSAT.ORG courtesy of AMSAT-NA.
To unsubscribe, send "unsubscribe sarex" to Majordomo@amsat.org



AMSAT Top AMSAT Home